Location: Glendale
(37.4556°N, 88.6714°W)
Time: 05:05:34
(UTC+00:00)

Cosmos 2056 Rocket - Pass Details

Date: 08 December 2019
Orbit: 741 x 801 km, 74.0° (Epoch: 25 January)

Event Time Altitude Azimuth Distance (km) Brightness Sun altitude
Exits shadow 10:15:09 49° 107° (ESE) 949 4.2 -31.3°
Maximum altitude 10:15:15 49° 103° (ESE) 948 4.2 -31.2°
Drops below altitude 10° 10:20:09 10° 29° (NNE) 2,258 6.2 -30.3°
Sets 10:22:34 0° 25° (NNE) 3,189 6.9 -29.8°
